Location: Vinland
(47.7731°N, 122.6974°W)
Time: 19:38:18
(UTC+00:00)

Vanguard 1 Rocket - Pass Details

Date: 21 March 2023
Orbit: 655 x 4220 km, 34.3° (Epoch: 05 June)

Event Time Altitude Azimuth Distance (km) Brightness Sun altitude
Exits shadow 13:33:51 - 253° (WSW) 3,744 9.9 -7.2°
Reaches altitude 10° 13:35:17 10° 246° (WSW) 3,355 9.7 -7.0°
Maximum altitude 13:38:46 13° 219° (SW) 2,681 9.4 -6.4°
Drops below altitude 10° 13:41:36 10° 191° (S) 2,615 9.6 -5.9°
Sets 13:45:07 0° 163° (SSE) 3,223 10.4 -5.3°
